This is the latest recevied weather packets stored in our database for station/object KO4DYK. If no packets are shown the sender has not sent any weather packets the latest 10 day(s).
| Time | Temp. | Humidity | Pressure | Rain* | Wind** | Luminosity | Snow |
|---|---|---|---|---|---|---|---|
| 1777651635 | 16.67° C | 69% | 1021.6 hPa | 0 mm | - | 388 W/m² | - |
| 1777651332 | 17.22° C | 68% | 1021.5 hPa | 0 mm | - | 390 W/m² | - |
| 1777651029 | 17.22° C | 69% | 1021.7 hPa | 0 mm | - | 398 W/m² | - |
| 1777650726 | 16.67° C | 68% | 1021.6 hPa | 0 mm | - | 407 W/m² | - |
| 1777650423 | 17.22° C | 71% | 1021.7 hPa | 0 mm | - | 401 W/m² | - |
| 1777650120 | 17.22° C | 70% | 1021.5 hPa | 0 mm | - | 457 W/m² | - |
| 1777649817 | 17.22° C | 69% | 1021.6 hPa | 0 mm | - | 439 W/m² | - |
| 1777649514 | 18.33° C | 71% | 1021.6 hPa | 0 mm | - | 474 W/m² | - |
| 1777649210 | 17.78° C | 72% | 1021.5 hPa | 0 mm | - | 471 W/m² | - |
| 1777648907 | 16.67° C | 75% | 1021.3 hPa | 0 mm | - | 439 W/m² | - |
| 1777648604 | 17.22° C | 73% | 1021.2 hPa | 0 mm | - | 468 W/m² | - |
| 1777648301 | 16.67° C | 73% | 1021.2 hPa | 0 mm | - | 432 W/m² | - |
| 1777647998 | 16.67° C | 75% | 1021.2 hPa | 0 mm | - | 419 W/m² | - |
| 1777647694 | 16.67° C | 75% | 1021.3 hPa | 0 mm | - | 467 W/m² | - |
| 1777647390 | 16.11° C | 74% | 1021.3 hPa | 0 mm | - | 523 W/m² | - |
| 1777647088 | 16.11° C | 75% | 1021.4 hPa | 0 mm | - | 502 W/m² | - |
| 1777646784 | 16.11° C | 76% | 1021.3 hPa | 0 mm | - | 576 W/m² | - |
| 1777646484 | 16.11° C | 75% | 1021.4 hPa | 0 mm | - | 438 W/m² | - |
| 1777646180 | 15.56° C | 77% | 1021.3 hPa | 0 mm | - | 429 W/m² | - |
| 1777645878 | 15.56° C | 78% | 1021.2 hPa | 0 mm | - | 454 W/m² | - |
| 1777645575 | 15.56° C | 78% | 1021.3 hPa | 0 mm | - | 390 W/m² | - |
| 1777645271 | 15° C | 80% | 1021.2 hPa | 0 mm | - | 449 W/m² | - |
| 1777644967 | 15° C | 83% | 1021.4 hPa | 0 mm | - | 453 W/m² | - |
| 1777644665 | 15° C | 84% | 1021.3 hPa | 0 mm | - | 364 W/m² | - |
| 1777644360 | 14.44° C | 85% | 1021.2 hPa | 0 mm | - | 271 W/m² | - |
* Rain latest hour (hover to see other rain measurements)
** Current wind speed in m/s (hover to see current wind gust speed)